This is the latest recevied weather packets stored in our database for station/object IK1QAD-3. If no packets are shown the sender has not sent any weather packets the latest 10 day(s).
| Time | Temp. | Humidity | Pressure | Rain* | Wind** | Luminosity | Snow |
|---|---|---|---|---|---|---|---|
| 1778029106 | 13.89° C | 92% | 1009.3 hPa | 3.05 mm | - | - | - |
| 1778028821 | 13.89° C | 92% | 1009.4 hPa | 3.05 mm | - | - | - |
| 1778028518 | 13.89° C | 92% | 1009.5 hPa | 4.06 mm | - | - | - |
| 1778028219 | 13.89° C | 93% | 1009.6 hPa | 6.1 mm | - | - | - |
| 1778027913 | 13.89° C | 93% | 1009.6 hPa | 7.87 mm | - | - | - |
| 1778027613 | 13.89° C | 93% | 1009.6 hPa | 8.89 mm | - | - | - |
| 1778027305 | 13.89° C | 92% | 1009.6 hPa | 8.89 mm | - | - | - |
| 1778027023 | 13.89° C | 92% | 1009.8 hPa | 8.89 mm | - | - | - |
| 1778026719 | 13.89° C | 92% | 1010 hPa | 7.87 mm | - | - | - |
| 1778026414 | 13.89° C | 92% | 1010.1 hPa | 7.87 mm | - | - | - |
| 1778026112 | 13.89° C | 92% | 1010.4 hPa | 7.11 mm | - | - | - |
| 1778025808 | 13.89° C | 92% | 1010.6 hPa | 6.1 mm | - | - | - |
| 1778025505 | 13.89° C | 92% | 1010.6 hPa | 6.1 mm | - | - | - |
| 1778025220 | 13.89° C | 92% | 1010.5 hPa | 6.1 mm | - | - | - |
| 1778024913 | 13.89° C | 91% | 1010.5 hPa | 4.06 mm | - | - | - |
| 1778024612 | 13.89° C | 91% | 1010.6 hPa | 3.05 mm | - | - | - |
| 1778024306 | 14.44° C | 89% | 1010.5 hPa | 0 mm | - | - | - |
| 1778024005 | 14.44° C | 88% | 1010.4 hPa | 0 mm | - | - | - |
| 1778023720 | 14.44° C | 88% | 1010.4 hPa | 0 mm | - | - | - |
| 1778023415 | 14.44° C | 88% | 1010.5 hPa | 0 mm | - | - | - |
| 1778023113 | 13.89° C | 89% | 1010.5 hPa | 0 mm | - | - | - |
| 1778022806 | 13.89° C | 90% | 1010.6 hPa | 0 mm | - | - | - |
| 1778022506 | 13.89° C | 90% | 1010.7 hPa | 0 mm | - | - | - |
| 1778022225 | 13.89° C | 90% | 1010.6 hPa | 0 mm | - | - | - |
| 1778021914 | 13.89° C | 90% | 1010.5 hPa | 0 mm | - | - | - |
* Rain latest hour (hover to see other rain measurements)
** Current wind speed in m/s (hover to see current wind gust speed)